Time,TemperatureF,DewpointF,PressureIn,WindDirection,WindDirectionDegrees,WindSpeedMPH,WindSpeedGustMPH,Humidity,HourlyPrecipIn,Conditions,Clouds,dailyrainin,SoftwareType,DateUTC
2013-05-03 00:01:00,62.0,61.7,30.11,ENE,68,2.0,10.0,99,0.00,,,0.00,Weather View 32 v70,2013-05-03 04:01:00,
2013-05-03 00:06:00,62.0,61.7,30.11,ENE,68,4.0,10.0,99,0.00,,,0.00,Weather View 32 v70,2013-05-03 04:06:00,
2013-05-03 00:11:00,62.0,61.7,30.11,ENE,68,3.0,10.0,99,0.00,,,0.00,Weather View 32 v70,2013-05-03 04:11:00,
2013-05-03 00:16:00,62.0,61.7,30.11,East,90,1.0,10.0,99,0.00,,,0.00,Weather View 32 v70,2013-05-03 04:16:00,
2013-05-03 00:21:00,62.0,61.7,30.11,East,90,3.0,10.0,99,0.00,,,0.00,Weather View 32 v70,2013-05-03 04:21:00,
2013-05-03 00:26:00,62.0,61.7,30.11,North,0,1.0,10.0,99,0.00,,,0.00,Weather View 32 v70,2013-05-03 04:26:00,
2013-05-03 00:31:00,62.0,61.7,30.11,ENE,68,1.0,10.0,99,0.00,,,0.00,Weather View 32 v70,2013-05-03 04:31:00,
2013-05-03 00:36:00,62.0,61.7,30.11,North,0,3.0,10.0,99,0.00,,,0.00,Weather View 32 v70,2013-05-03 04:36:00,
2013-05-03 00:41:00,62.0,61.7,30.11,ENE,68,1.0,10.0,99,0.00,,,0.00,Weather View 32 v70,2013-05-03 04:41:00,
2013-05-03 00:46:00,62.0,61.7,30.11,ENE,68,3.0,10.0,99,0.00,,,0.00,Weather View 32 v70,2013-05-03 04:46:00,
2013-05-03 00:51:00,62.0,61.7,30.10,East,90,0.0,10.0,99,0.00,,,0.00,Weather View 32 v70,2013-05-03 04:51:00,
2013-05-03 00:56:00,62.0,61.7,30.10,North,0,1.0,10.0,99,0.00,,,0.00,Weather View 32 v70,2013-05-03 04:56:00,
2013-05-03 01:01:00,62.0,61.7,30.10,ENE,68,1.0,10.0,99,0.00,,,0.00,Weather View 32 v70,2013-05-03 05:01:00,
2013-05-03 01:06:00,62.0,61.7,30.10,ENE,68,3.0,10.0,99,0.00,,,0.00,Weather View 32 v70,2013-05-03 05:06:00,
2013-05-03 01:11:00,61.0,60.7,30.10,ENE,68,1.0,10.0,99,0.00,,,0.00,Weather View 32 v70,2013-05-03 05:11:00,
2013-05-03 01:16:00,61.0,60.7,30.10,East,90,3.0,10.0,99,0.00,,,0.00,Weather View 32 v70,2013-05-03 05:16:00,
2013-05-03 01:21:00,61.0,60.7,30.10,ENE,68,3.0,10.0,99,0.00,,,0.00,Weather View 32 v70,2013-05-03 05:21:00,
2013-05-03 01:26:00,61.0,60.4,30.10,ENE,68,2.0,10.0,98,0.00,,,0.00,Weather View 32 v70,2013-05-03 05:26:00,
2013-05-03 01:31:00,62.0,61.4,30.10,ENE,68,1.0,10.0,98,0.00,,,0.00,Weather View 32 v70,2013-05-03 05:31:00,
2013-05-03 01:36:00,61.0,60.4,30.10,North,0,3.0,9.0,98,0.00,,,0.00,Weather View 32 v70,2013-05-03 05:36:00,
2013-05-03 01:41:00,61.0,60.4,30.10,ENE,68,1.0,9.0,98,0.00,,,0.00,Weather View 32 v70,2013-05-03 05:41:00,
2013-05-03 01:46:00,61.0,60.4,30.10,ENE,68,3.0,9.0,98,0.00,,,0.00,Weather View 32 v70,2013-05-03 05:46:00,
2013-05-03 01:51:00,61.0,60.4,30.09,East,90,0.0,9.0,98,0.00,,,0.00,Weather View 32 v70,2013-05-03 05:51:00,
2013-05-03 01:56:00,61.0,60.4,30.09,ENE,68,1.0,9.0,98,0.00,,,0.00,Weather View 32 v70,2013-05-03 05:56:00,
2013-05-03 02:01:00,61.0,60.1,30.09,ENE,68,4.0,9.0,97,0.00,,,0.00,Weather View 32 v70,2013-05-03 06:01:00,
2013-05-03 02:06:00,61.0,60.1,30.09,ENE,68,2.0,9.0,97,0.00,,,0.00,Weather View 32 v70,2013-05-03 06:06:00,
2013-05-03 02:11:00,61.0,60.1,30.08,ENE,68,3.0,9.0,97,0.00,,,0.00,Weather View 32 v70,2013-05-03 06:11:00,
2013-05-03 02:16:00,61.0,60.1,30.08,ENE,68,3.0,10.0,97,0.00,,,0.00,Weather View 32 v70,2013-05-03 06:16:00,
2013-05-03 02:21:00,61.0,59.8,30.08,ENE,68,9.0,11.0,96,0.00,,,0.00,Weather View 32 v70,2013-05-03 06:21:00,
2013-05-03 02:26:00,61.0,59.8,30.08,ENE,68,3.0,11.0,96,0.00,,,0.00,Weather View 32 v70,2013-05-03 06:26:00,
2013-05-03 02:31:00,61.0,59.8,30.08,ENE,68,5.0,11.0,96,0.00,,,0.00,Weather View 32 v70,2013-05-03 06:31:00,
2013-05-03 02:36:00,61.0,59.8,30.08,ENE,68,6.0,11.0,96,0.00,,,0.00,Weather View 32 v70,2013-05-03 06:36:00,
2013-05-03 02:41:00,61.0,59.8,30.08,North,0,6.0,11.0,96,0.00,,,0.00,Weather View 32 v70,2013-05-03 06:41:00,
2013-05-03 02:46:00,61.0,59.6,30.08,ENE,68,3.0,11.0,95,0.00,,,0.00,Weather View 32 v70,2013-05-03 06:46:00,
2013-05-03 02:51:00,61.0,59.6,30.07,ENE,68,6.0,11.0,95,0.00,,,0.00,Weather View 32 v70,2013-05-03 06:51:00,
2013-05-03 02:56:00,61.0,59.6,30.08,ENE,68,1.0,12.0,95,0.00,,,0.00,Weather View 32 v70,2013-05-03 06:56:00,
2013-05-03 03:01:00,61.0,59.6,30.07,ENE,68,3.0,12.0,95,0.00,,,0.00,Weather View 32 v70,2013-05-03 07:01:00,
2013-05-03 03:06:00,61.0,59.6,30.07,ENE,68,6.0,12.0,95,0.00,,,0.00,Weather View 32 v70,2013-05-03 07:06:00,
2013-05-03 03:11:00,61.0,59.6,30.07,ENE,68,3.0,12.0,95,0.00,,,0.00,Weather View 32 v70,2013-05-03 07:11:00,
2013-05-03 03:16:00,61.0,59.3,30.07,ENE,68,5.0,12.0,94,0.00,,,0.00,Weather View 32 v70,2013-05-03 07:16:00,
2013-05-03 03:21:00,61.0,59.3,30.07,ENE,68,1.0,12.0,94,0.00,,,0.00,Weather View 32 v70,2013-05-03 07:21:00,
2013-05-03 03:26:00,61.0,59.3,30.07,ENE,68,6.0,12.0,94,0.00,,,0.00,Weather View 32 v70,2013-05-03 07:26:00,
2013-05-03 03:31:00,61.0,59.3,30.07,ENE,68,7.0,12.0,94,0.00,,,0.00,Weather View 32 v70,2013-05-03 07:31:00,
2013-05-03 03:36:00,61.0,59.3,30.07,ENE,68,8.0,12.0,94,0.00,,,0.00,Weather View 32 v70,2013-05-03 07:36:00,
2013-05-03 03:41:00,61.0,59.3,30.07,ENE,68,5.0,12.0,94,0.00,,,0.00,Weather View 32 v70,2013-05-03 07:41:00,
2013-05-03 03:46:00,61.0,59.0,30.07,ENE,68,4.0,12.0,93,0.00,,,0.00,Weather View 32 v70,2013-05-03 07:46:00,
2013-05-03 03:51:00,61.0,59.0,30.07,ENE,68,3.0,12.0,93,0.00,,,0.00,Weather View 32 v70,2013-05-03 07:51:00,
2013-05-03 03:56:00,61.0,59.0,30.07,East,90,5.0,12.0,93,0.00,,,0.00,Weather View 32 v70,2013-05-03 07:56:00,
2013-05-03 04:01:00,60.0,57.7,30.07,ENE,68,5.0,13.0,92,0.00,,,0.00,Weather View 32 v70,2013-05-03 08:01:00,
2013-05-03 04:06:00,60.0,57.7,30.07,North,0,3.0,13.0,92,0.00,,,0.00,Weather View 32 v70,2013-05-03 08:06:00,
2013-05-03 04:11:00,60.0,57.7,30.07,SSE,158,3.0,13.0,92,0.00,,,0.00,Weather View 32 v70,2013-05-03 08:11:00,
2013-05-03 04:16:00,60.0,57.7,30.07,East,90,5.0,13.0,92,0.00,,,0.00,Weather View 32 v70,2013-05-03 08:16:00,
2013-05-03 04:21:00,60.0,57.4,30.07,East,90,2.0,13.0,91,0.00,,,0.00,Weather View 32 v70,2013-05-03 08:21:00,
2013-05-03 04:26:00,60.0,57.4,30.07,SSE,158,3.0,13.0,91,0.00,,,0.00,Weather View 32 v70,2013-05-03 08:26:00,
2013-05-03 04:31:00,60.0,57.4,30.07,ENE,68,4.0,13.0,91,0.00,,,0.00,Weather View 32 v70,2013-05-03 08:31:00,
2013-05-03 04:36:00,60.0,57.4,30.07,East,90,5.0,13.0,91,0.00,,,0.00,Weather View 32 v70,2013-05-03 08:36:00,
2013-05-03 04:41:00,60.0,57.4,30.07,ENE,68,10.0,13.0,91,0.00,,,0.00,Weather View 32 v70,2013-05-03 08:41:00,
2013-05-03 04:46:00,60.0,57.4,30.07,ENE,68,8.0,13.0,91,0.00,,,0.00,Weather View 32 v70,2013-05-03 08:46:00,
2013-05-03 04:51:00,60.0,57.0,30.07,ENE,68,4.0,13.0,90,0.00,,,0.00,Weather View 32 v70,2013-05-03 08:51:00,
2013-05-03 04:56:00,60.0,57.4,30.07,ENE,68,3.0,13.0,91,0.00,,,0.00,Weather View 32 v70,2013-05-03 08:56:00,
2013-05-03 05:01:00,60.0,57.4,30.07,East,90,4.0,11.0,91,0.00,,,0.00,Weather View 32 v70,2013-05-03 09:01:00,
2013-05-03 05:06:00,60.0,57.4,30.07,ENE,68,5.0,11.0,91,0.00,,,0.00,Weather View 32 v70,2013-05-03 09:06:00,
2013-05-03 05:11:00,60.0,57.4,30.07,ENE,68,6.0,11.0,91,0.00,,,0.00,Weather View 32 v70,2013-05-03 09:11:00,
2013-05-03 05:16:00,60.0,57.7,30.07,North,0,3.0,11.0,92,0.00,,,0.00,Weather View 32 v70,2013-05-03 09:16:00,
2013-05-03 05:21:00,59.0,56.7,30.07,North,0,3.0,11.0,92,0.00,,,0.00,Weather View 32 v70,2013-05-03 09:21:00,
2013-05-03 05:27:00,59.0,56.7,30.07,ENE,68,2.0,11.0,92,0.00,,,0.00,Weather View 32 v70,2013-05-03 09:27:00,
2013-05-03 05:32:00,59.0,56.7,30.06,North,0,2.0,11.0,92,0.00,,,0.00,Weather View 32 v70,2013-05-03 09:32:00,
2013-05-03 05:37:00,59.0,56.7,30.07,ENE,68,2.0,11.0,92,0.00,,,0.00,Weather View 32 v70,2013-05-03 09:37:00,
2013-05-03 05:42:00,59.0,57.0,30.06,North,0,3.0,11.0,93,0.00,,,0.00,Weather View 32 v70,2013-05-03 09:42:00,
2013-05-03 05:47:00,59.0,57.0,30.07,ENE,68,2.0,11.0,93,0.00,,,0.00,Weather View 32 v70,2013-05-03 09:47:00,
2013-05-03 05:52:00,59.0,57.0,30.07,ENE,68,3.0,11.0,93,0.00,,,0.00,Weather View 32 v70,2013-05-03 09:52:00,
2013-05-03 05:57:00,59.0,57.0,30.07,ENE,68,5.0,11.0,93,0.00,,,0.00,Weather View 32 v70,2013-05-03 09:57:00,
2013-05-03 06:02:00,59.0,57.3,30.07,ENE,68,1.0,11.0,94,0.00,,,0.00,Weather View 32 v70,2013-05-03 10:02:00,
2013-05-03 06:07:00,59.0,57.3,30.07,ENE,68,3.0,11.0,94,0.00,,,0.00,Weather View 32 v70,2013-05-03 10:07:00,
2013-05-03 06:12:00,59.0,57.3,30.07,ENE,68,4.0,11.0,94,0.00,,,0.00,Weather View 32 v70,2013-05-03 10:12:00,
2013-05-03 06:17:00,59.0,57.3,30.08,East,90,2.0,11.0,94,0.00,,,0.00,Weather View 32 v70,2013-05-03 10:17:00,
2013-05-03 06:22:00,58.0,56.3,30.08,ENE,68,7.0,11.0,94,0.00,,,0.00,Weather View 32 v70,2013-05-03 10:22:00,
2013-05-03 06:27:00,58.0,56.3,30.08,ENE,68,5.0,11.0,94,0.00,,,0.00,Weather View 32 v70,2013-05-03 10:27:00,
2013-05-03 06:32:00,58.0,56.6,30.08,ENE,68,3.0,11.0,95,0.00,,,0.00,Weather View 32 v70,2013-05-03 10:32:00,
2013-05-03 06:37:00,58.0,56.6,30.08,North,0,6.0,12.0,95,0.00,,,0.00,Weather View 32 v70,2013-05-03 10:37:00,
2013-05-03 06:42:00,58.0,56.6,30.08,North,0,2.0,12.0,95,0.00,,,0.00,Weather View 32 v70,2013-05-03 10:42:00,
2013-05-03 06:47:00,58.0,56.6,30.08,ENE,68,7.0,12.0,95,0.00,,,0.00,Weather View 32 v70,2013-05-03 10:47:00,
2013-05-03 06:52:00,58.0,56.6,30.09,North,0,8.0,13.0,95,0.00,,,0.00,Weather View 32 v70,2013-05-03 10:52:00,
2013-05-03 06:57:00,58.0,56.6,30.09,ENE,68,3.0,13.0,95,0.00,,,0.00,Weather View 32 v70,2013-05-03 10:57:00,
2013-05-03 07:02:00,58.0,56.6,30.09,ENE,68,4.0,13.0,95,0.00,,,0.00,Weather View 32 v70,2013-05-03 11:02:00,
2013-05-03 07:07:00,58.0,56.6,30.09,East,90,3.0,13.0,95,0.00,,,0.00,Weather View 32 v70,2013-05-03 11:07:00,
2013-05-03 07:12:00,58.0,56.6,30.09,ENE,68,5.0,13.0,95,0.00,,,0.00,Weather View 32 v70,2013-05-03 11:12:00,
2013-05-03 07:17:00,58.0,56.6,30.09,ENE,68,3.0,14.0,95,0.00,,,0.00,Weather View 32 v70,2013-05-03 11:17:00,
2013-05-03 07:22:00,58.0,56.6,30.09,ENE,68,5.0,14.0,95,0.00,,,0.00,Weather View 32 v70,2013-05-03 11:22:00,
2013-05-03 07:27:00,58.0,56.6,30.09,North,0,8.0,14.0,95,0.00,,,0.00,Weather View 32 v70,2013-05-03 11:27:00,
2013-05-03 07:32:00,58.0,56.9,30.09,ENE,68,5.0,14.0,96,0.00,,,0.00,Weather View 32 v70,2013-05-03 11:32:00,
2013-05-03 07:37:00,58.0,56.9,30.09,ENE,68,5.0,14.0,96,0.00,,,0.00,Weather View 32 v70,2013-05-03 11:37:00,
2013-05-03 07:42:00,58.0,56.9,30.09,ENE,68,10.0,14.0,96,0.00,,,0.00,Weather View 32 v70,2013-05-03 11:42:00,
2013-05-03 07:47:00,58.0,56.9,30.09,North,0,8.0,14.0,96,0.00,,,0.00,Weather View 32 v70,2013-05-03 11:47:00,
2013-05-03 07:52:00,58.0,56.9,30.10,ENE,68,6.0,14.0,96,0.00,,,0.00,Weather View 32 v70,2013-05-03 11:52:00,
2013-05-03 07:57:00,58.0,56.9,30.10,ENE,68,6.0,14.0,96,0.00,,,0.00,Weather View 32 v70,2013-05-03 11:57:00,
2013-05-03 08:02:00,58.0,56.9,30.10,ENE,68,4.0,14.0,96,0.00,,,0.00,Weather View 32 v70,2013-05-03 12:02:00,
2013-05-03 08:07:00,58.0,56.9,30.10,ENE,68,9.0,14.0,96,0.00,,,0.00,Weather View 32 v70,2013-05-03 12:07:00,
2013-05-03 08:12:00,58.0,56.9,30.10,ENE,68,3.0,14.0,96,0.00,,,0.00,Weather View 32 v70,2013-05-03 12:12:00,
2013-05-03 08:17:00,58.0,56.6,30.10,NNW,338,7.0,14.0,95,0.00,,,0.00,Weather View 32 v70,2013-05-03 12:17:00,
2013-05-03 08:22:00,59.0,57.3,30.10,ENE,68,10.0,14.0,94,0.00,,,0.00,Weather View 32 v70,2013-05-03 12:22:00,
2013-05-03 08:27:00,59.0,57.3,30.10,ENE,68,7.0,14.0,94,0.00,,,0.00,Weather View 32 v70,2013-05-03 12:27:00,
2013-05-03 08:32:00,59.0,57.0,30.10,North,0,1.0,14.0,93,0.00,,,0.00,Weather View 32 v70,2013-05-03 12:32:00,
2013-05-03 08:37:00,59.0,56.7,30.10,East,90,7.0,14.0,92,0.00,,,0.00,Weather View 32 v70,2013-05-03 12:37:00,
2013-05-03 08:42:00,60.0,57.4,30.10,East,90,5.0,14.0,91,0.00,,,0.00,Weather View 32 v70,2013-05-03 12:42:00,
2013-05-03 08:47:00,60.0,57.4,30.10,ENE,68,3.0,14.0,91,0.00,,,0.00,Weather View 32 v70,2013-05-03 12:47:00,
2013-05-03 08:52:00,60.0,57.0,30.10,ENE,68,5.0,14.0,90,0.00,,,0.00,Weather View 32 v70,2013-05-03 12:52:00,
2013-05-03 08:58:00,60.0,56.7,30.11,ENE,68,8.0,14.0,89,0.00,,,0.00,Weather View 32 v70,2013-05-03 12:58:00,
2013-05-03 09:03:00,60.0,56.7,30.10,ENE,68,12.0,16.0,89,0.00,,,0.00,Weather View 32 v70,2013-05-03 13:03:00,
2013-05-03 09:08:00,60.0,56.4,30.10,East,90,7.0,16.0,88,0.00,,,0.00,Weather View 32 v70,2013-05-03 13:08:00,
2013-05-03 09:13:00,60.0,56.4,30.11,ENE,68,10.0,16.0,88,0.00,,,0.00,Weather View 32 v70,2013-05-03 13:13:00,
2013-05-03 09:18:00,61.0,57.4,30.10,North,0,5.0,16.0,88,0.00,,,0.00,Weather View 32 v70,2013-05-03 13:18:00,
2013-05-03 09:23:00,61.0,57.4,30.11,ENE,68,7.0,17.0,88,0.00,,,0.00,Weather View 32 v70,2013-05-03 13:23:00,
2013-05-03 09:28:00,60.0,56.4,30.11,ENE,68,9.0,18.0,88,0.00,,,0.00,Weather View 32 v70,2013-05-03 13:28:00,
2013-05-03 09:33:00,61.0,57.4,30.11,East,90,6.0,18.0,88,0.00,,,0.00,Weather View 32 v70,2013-05-03 13:33:00,
2013-05-03 09:38:00,60.0,56.4,30.10,ENE,68,6.0,18.0,88,0.00,,,0.00,Weather View 32 v70,2013-05-03 13:38:00,
2013-05-03 09:43:00,61.0,57.4,30.11,NNW,338,3.0,18.0,88,0.00,,,0.00,Weather View 32 v70,2013-05-03 13:43:00,
2013-05-03 09:48:00,61.0,57.4,30.11,North,0,8.0,18.0,88,0.00,,,0.00,Weather View 32 v70,2013-05-03 13:48:00,
2013-05-03 09:53:00,61.0,57.4,30.11,East,90,3.0,18.0,88,0.00,,,0.00,Weather View 32 v70,2013-05-03 13:53:00,
2013-05-03 09:58:00,61.0,57.4,30.11,East,90,0.0,18.0,88,0.00,,,0.00,Weather View 32 v70,2013-05-03 13:58:00,
2013-05-03 10:03:00,61.0,57.4,30.11,ENE,68,4.0,18.0,88,0.00,,,0.00,Weather View 32 v70,2013-05-03 14:03:00,
2013-05-03 10:08:00,61.0,57.4,30.11,ENE,68,8.0,18.0,88,0.00,,,0.00,Weather View 32 v70,2013-05-03 14:08:00,
2013-05-03 10:13:00,61.0,57.4,30.11,East,90,1.0,18.0,88,0.00,,,0.00,Weather View 32 v70,2013-05-03 14:13:00,
2013-05-03 10:18:00,61.0,57.4,30.11,ENE,68,2.0,18.0,88,0.00,,,0.00,Weather View 32 v70,2013-05-03 14:18:00,
2013-05-03 10:23:00,61.0,57.4,30.11,NNW,338,1.0,18.0,88,0.00,,,0.00,Weather View 32 v70,2013-05-03 14:23:00,
2013-05-03 10:28:00,61.0,57.7,30.11,ENE,68,3.0,16.0,89,0.00,,,0.00,Weather View 32 v70,2013-05-03 14:28:00,
2013-05-03 10:33:00,61.0,57.4,30.11,North,0,10.0,16.0,88,0.00,,,0.00,Weather View 32 v70,2013-05-03 14:33:00,
2013-05-03 10:38:00,61.0,57.4,30.11,East,90,3.0,13.0,88,0.00,,,0.00,Weather View 32 v70,2013-05-03 14:38:00,
2013-05-03 10:43:00,61.0,57.1,30.11,East,90,10.0,14.0,87,0.00,,,0.00,Weather View 32 v70,2013-05-03 14:43:00,
2013-05-03 10:48:00,61.0,57.1,30.11,ENE,68,4.0,15.0,87,0.00,,,0.00,Weather View 32 v70,2013-05-03 14:48:00,
2013-05-03 10:53:00,61.0,57.1,30.11,ENE,68,8.0,15.0,87,0.00,,,0.00,Weather View 32 v70,2013-05-03 14:53:00,
2013-05-03 10:58:00,62.0,58.1,30.11,ENE,68,5.0,15.0,87,0.00,,,0.00,Weather View 32 v70,2013-05-03 14:58:00,
2013-05-03 11:03:00,62.0,57.8,30.11,NNW,338,4.0,15.0,86,0.00,,,0.00,Weather View 32 v70,2013-05-03 15:03:00,
2013-05-03 11:08:00,62.0,57.4,30.11,East,90,8.0,15.0,85,0.00,,,0.00,Weather View 32 v70,2013-05-03 15:08:00,
2013-05-03 11:13:00,63.0,58.4,30.11,ENE,68,3.0,15.0,85,0.00,,,0.00,Weather View 32 v70,2013-05-03 15:13:00,
2013-05-03 11:18:00,64.0,59.1,30.11,ENE,68,6.0,15.0,84,0.00,,,0.00,Weather View 32 v70,2013-05-03 15:18:00,
2013-05-03 11:23:00,64.0,58.4,30.11,East,90,2.0,15.0,82,0.00,,,0.00,Weather View 32 v70,2013-05-03 15:23:00,
2013-05-03 11:29:00,64.0,58.4,30.11,ENE,68,4.0,15.0,82,0.00,,,0.00,Weather View 32 v70,2013-05-03 15:29:00,
2013-05-03 11:34:00,65.0,59.0,30.11,East,90,6.0,15.0,81,0.00,,,0.00,Weather View 32 v70,2013-05-03 15:34:00,
2013-05-03 11:39:00,65.0,58.7,30.11,North,0,4.0,15.0,80,0.00,,,0.00,Weather View 32 v70,2013-05-03 15:39:00,
2013-05-03 11:44:00,65.0,58.7,30.10,ENE,68,3.0,15.0,80,0.00,,,0.00,Weather View 32 v70,2013-05-03 15:44:00,
2013-05-03 11:49:00,66.0,58.9,30.10,ENE,68,3.0,15.0,78,0.00,,,0.00,Weather View 32 v70,2013-05-03 15:49:00,
2013-05-03 11:54:00,66.0,58.9,30.10,East,90,5.0,16.0,78,0.00,,,0.00,Weather View 32 v70,2013-05-03 15:54:00,
2013-05-03 11:59:00,66.0,58.2,30.10,WSW,248,5.0,16.0,76,0.00,,,0.00,Weather View 32 v70,2013-05-03 15:59:00,
2013-05-03 12:04:00,67.0,58.8,30.10,East,90,10.0,16.0,75,0.00,,,0.00,Weather View 32 v70,2013-05-03 16:04:00,
2013-05-03 12:09:00,67.0,58.8,30.10,East,90,5.0,16.0,75,0.00,,,0.00,Weather View 32 v70,2013-05-03 16:09:00,
2013-05-03 12:14:00,67.0,58.8,30.09,ENE,68,7.0,16.0,75,0.00,,,0.00,Weather View 32 v70,2013-05-03 16:14:00,
2013-05-03 12:19:00,67.0,58.8,30.09,East,90,3.0,16.0,75,0.00,,,0.00,Weather View 32 v70,2013-05-03 16:19:00,
2013-05-03 12:24:00,68.0,59.8,30.09,North,0,4.0,16.0,75,0.00,,,0.00,Weather View 32 v70,2013-05-03 16:24:00,
2013-05-03 12:29:00,69.0,60.3,30.09,ENE,68,4.0,16.0,74,0.00,,,0.00,Weather View 32 v70,2013-05-03 16:29:00,
2013-05-03 12:34:00,69.0,59.2,30.09,ENE,68,11.0,16.0,71,0.00,,,0.00,Weather View 32 v70,2013-05-03 16:34:00,
2013-05-03 12:39:00,69.0,59.6,30.09,ENE,68,2.0,16.0,72,0.00,,,0.00,Weather View 32 v70,2013-05-03 16:39:00,
2013-05-03 12:44:00,69.0,59.6,30.08,NNW,338,4.0,16.0,72,0.00,,,0.00,Weather View 32 v70,2013-05-03 16:44:00,
2013-05-03 12:49:00,69.0,59.6,30.08,East,90,4.0,16.0,72,0.00,,,0.00,Weather View 32 v70,2013-05-03 16:49:00,
2013-05-03 12:54:00,71.0,60.7,30.08,ENE,68,2.0,16.0,70,0.00,,,0.00,Weather View 32 v70,2013-05-03 16:54:00,
2013-05-03 12:59:00,71.0,60.3,30.08,East,90,6.0,16.0,69,0.00,,,0.00,Weather View 32 v70,2013-05-03 16:59:00,
2013-05-03 13:04:00,71.0,59.9,30.08,East,90,1.0,16.0,68,0.00,,,0.00,Weather View 32 v70,2013-05-03 17:04:00,
2013-05-03 13:09:00,70.0,58.9,30.08,North,0,8.0,16.0,68,0.00,,,0.00,Weather View 32 v70,2013-05-03 17:09:00,
2013-05-03 13:14:00,70.0,59.3,30.07,ENE,68,5.0,16.0,69,0.00,,,0.00,Weather View 32 v70,2013-05-03 17:14:00,
2013-05-03 13:19:00,70.0,59.3,30.07,ENE,68,4.0,19.0,69,0.00,,,0.00,Weather View 32 v70,2013-05-03 17:19:00,
2013-05-03 13:24:00,70.0,58.9,30.07,NNW,338,4.0,19.0,68,0.00,,,0.00,Weather View 32 v70,2013-05-03 17:24:00,
2013-05-03 13:29:00,71.0,59.9,30.07,East,90,1.0,19.0,68,0.00,,,0.00,Weather View 32 v70,2013-05-03 17:29:00,
2013-05-03 13:34:00,71.0,59.5,30.07,ENE,68,6.0,19.0,67,0.00,,,0.00,Weather View 32 v70,2013-05-03 17:34:00,
2013-05-03 13:39:00,72.0,59.6,30.06,East,90,6.0,19.0,65,0.00,,,0.00,Weather View 32 v70,2013-05-03 17:39:00,
2013-05-03 13:44:00,72.0,59.6,30.06,ENE,68,6.0,19.0,65,0.00,,,0.00,Weather View 32 v70,2013-05-03 17:44:00,
2013-05-03 13:49:00,71.0,59.0,30.06,ENE,68,3.0,19.0,66,0.00,,,0.00,Weather View 32 v70,2013-05-03 17:49:00,
2013-05-03 13:54:00,71.0,59.0,30.06,NNW,338,7.0,19.0,66,0.00,,,0.00,Weather View 32 v70,2013-05-03 17:54:00,
2013-05-03 13:59:00,70.0,58.1,30.06,East,90,6.0,19.0,66,0.00,,,0.00,Weather View 32 v70,2013-05-03 17:59:00,
2013-05-03 14:04:00,70.0,58.1,30.06,ENE,68,8.0,19.0,66,0.00,,,0.00,Weather View 32 v70,2013-05-03 18:04:00,
2013-05-03 14:09:00,70.0,58.5,30.06,North,0,8.0,19.0,67,0.00,,,0.00,Weather View 32 v70,2013-05-03 18:09:00,
2013-05-03 14:14:00,70.0,58.1,30.05,East,90,8.0,19.0,66,0.00,,,0.00,Weather View 32 v70,2013-05-03 18:14:00,
2013-05-03 14:19:00,71.0,59.0,30.05,ENE,68,4.0,18.0,66,0.00,,,0.00,Weather View 32 v70,2013-05-03 18:19:00,
2013-05-03 14:24:00,71.0,59.5,30.05,ENE,68,8.0,18.0,67,0.00,,,0.00,Weather View 32 v70,2013-05-03 18:24:00,
2013-05-03 14:30:00,71.0,59.0,30.05,ENE,68,3.0,18.0,66,0.00,,,0.00,Weather View 32 v70,2013-05-03 18:30:00,
2013-05-03 14:35:00,71.0,58.6,30.04,North,0,5.0,18.0,65,0.00,,,0.00,Weather View 32 v70,2013-05-03 18:35:00,
2013-05-03 14:40:00,71.0,58.6,30.04,ENE,68,8.0,18.0,65,0.00,,,0.00,Weather View 32 v70,2013-05-03 18:40:00,
2013-05-03 14:45:00,71.0,58.2,30.04,North,0,8.0,18.0,64,0.00,,,0.00,Weather View 32 v70,2013-05-03 18:45:00,
2013-05-03 14:50:00,71.0,57.7,30.04,East,90,7.0,18.0,63,0.00,,,0.00,Weather View 32 v70,2013-05-03 18:50:00,
2013-05-03 14:55:00,71.0,58.2,30.04,ENE,68,5.0,18.0,64,0.00,,,0.00,Weather View 32 v70,2013-05-03 18:55:00,
2013-05-03 15:00:00,71.0,57.7,30.04,ENE,68,6.0,19.0,63,0.00,,,0.00,Weather View 32 v70,2013-05-03 19:00:00,
2013-05-03 15:05:00,71.0,57.7,30.04,North,0,3.0,19.0,63,0.00,,,0.00,Weather View 32 v70,2013-05-03 19:05:00,
2013-05-03 15:10:00,71.0,57.7,30.04,ENE,68,3.0,19.0,63,0.00,,,0.00,Weather View 32 v70,2013-05-03 19:10:00,
2013-05-03 15:15:00,71.0,58.2,30.04,East,90,9.0,19.0,64,0.00,,,0.00,Weather View 32 v70,2013-05-03 19:15:00,
2013-05-03 15:20:00,71.0,57.7,30.04,East,90,6.0,19.0,63,0.00,,,0.00,Weather View 32 v70,2013-05-03 19:20:00,
2013-05-03 15:25:00,71.0,58.6,30.03,ENE,68,9.0,19.0,65,0.00,,,0.00,Weather View 32 v70,2013-05-03 19:25:00,
2013-05-03 15:30:00,71.0,57.7,30.03,ENE,68,6.0,19.0,63,0.00,,,0.00,Weather View 32 v70,2013-05-03 19:30:00,
2013-05-03 15:35:00,71.0,58.2,30.03,East,90,10.0,19.0,64,0.00,,,0.00,Weather View 32 v70,2013-05-03 19:35:00,
2013-05-03 15:40:00,71.0,57.7,30.03,East,90,4.0,19.0,63,0.00,,,0.00,Weather View 32 v70,2013-05-03 19:40:00,
2013-05-03 15:45:00,71.0,58.2,30.03,ENE,68,5.0,19.0,64,0.00,,,0.00,Weather View 32 v70,2013-05-03 19:45:00,
2013-05-03 15:50:00,70.0,57.2,30.03,North,0,5.0,21.0,64,0.00,,,0.00,Weather View 32 v70,2013-05-03 19:50:00,
2013-05-03 15:55:00,71.0,58.2,30.03,North,0,5.0,21.0,64,0.00,,,0.00,Weather View 32 v70,2013-05-03 19:55:00,
2013-05-03 16:00:00,71.0,57.7,30.03,ENE,68,2.0,21.0,63,0.00,,,0.00,Weather View 32 v70,2013-05-03 20:00:00,
2013-05-03 16:05:00,71.0,58.2,30.03,ENE,68,14.0,21.0,64,0.00,,,0.00,Weather View 32 v70,2013-05-03 20:05:00,
2013-05-03 16:10:00,71.0,58.6,30.03,ENE,68,4.0,21.0,65,0.00,,,0.00,Weather View 32 v70,2013-05-03 20:10:00,
2013-05-03 16:15:00,70.0,57.7,30.03,ENE,68,5.0,21.0,65,0.00,,,0.00,Weather View 32 v70,2013-05-03 20:15:00,
2013-05-03 16:20:00,70.0,57.7,30.03,North,0,5.0,21.0,65,0.00,,,0.00,Weather View 32 v70,2013-05-03 20:20:00,
2013-05-03 16:25:00,70.0,58.1,30.02,ENE,68,5.0,21.0,66,0.00,,,0.00,Weather View 32 v70,2013-05-03 20:25:00,
2013-05-03 16:30:00,70.0,57.7,30.03,East,90,9.0,21.0,65,0.00,,,0.00,Weather View 32 v70,2013-05-03 20:30:00,
2013-05-03 16:35:00,69.0,57.1,30.03,SSE,158,4.0,21.0,66,0.00,,,0.00,Weather View 32 v70,2013-05-03 20:35:00,
2013-05-03 16:40:00,69.0,58.0,30.03,East,90,5.0,21.0,68,0.00,,,0.00,Weather View 32 v70,2013-05-03 20:40:00,
2013-05-03 16:45:00,69.0,58.4,30.03,ENE,68,4.0,21.0,69,0.00,,,0.00,Weather View 32 v70,2013-05-03 20:45:00,
2013-05-03 16:50:00,69.0,58.4,30.02,SSE,158,3.0,20.0,69,0.00,,,0.00,Weather View 32 v70,2013-05-03 20:50:00,
2013-05-03 16:55:00,69.0,58.4,30.02,ENE,68,2.0,18.0,69,0.00,,,0.00,Weather View 32 v70,2013-05-03 20:55:00,
2013-05-03 17:01:00,69.0,58.4,30.02,North,0,3.0,18.0,69,0.00,,,0.00,Weather View 32 v70,2013-05-03 21:01:00,
2013-05-03 17:06:00,69.0,58.4,30.02,East,90,6.0,18.0,69,0.00,,,0.00,Weather View 32 v70,2013-05-03 21:06:00,
2013-05-03 17:11:00,69.0,58.4,30.01,East,90,4.0,18.0,69,0.00,,,0.00,Weather View 32 v70,2013-05-03 21:11:00,
2013-05-03 17:16:00,69.0,58.4,30.02,East,90,6.0,18.0,69,0.00,,,0.00,Weather View 32 v70,2013-05-03 21:16:00,
2013-05-03 17:21:00,69.0,58.8,30.01,ENE,68,6.0,16.0,70,0.00,,,0.00,Weather View 32 v70,2013-05-03 21:21:00,
2013-05-03 17:26:00,69.0,58.8,30.01,ENE,68,6.0,16.0,70,0.00,,,0.00,Weather View 32 v70,2013-05-03 21:26:00,
2013-05-03 17:31:00,69.0,58.4,30.01,ENE,68,9.0,16.0,69,0.00,,,0.00,Weather View 32 v70,2013-05-03 21:31:00,
2013-05-03 17:36:00,69.0,58.4,30.01,North,0,3.0,15.0,69,0.00,,,0.00,Weather View 32 v70,2013-05-03 21:36:00,
2013-05-03 17:41:00,69.0,58.0,30.01,ENE,68,5.0,14.0,68,0.00,,,0.00,Weather View 32 v70,2013-05-03 21:41:00,
2013-05-03 17:46:00,69.0,58.4,30.01,East,90,5.0,14.0,69,0.00,,,0.00,Weather View 32 v70,2013-05-03 21:46:00,
2013-05-03 17:51:00,69.0,58.4,30.01,ENE,68,5.0,14.0,69,0.00,,,0.00,Weather View 32 v70,2013-05-03 21:51:00,
2013-05-03 17:56:00,69.0,58.4,30.01,East,90,7.0,14.0,69,0.00,,,0.00,Weather View 32 v70,2013-05-03 21:56:00,
2013-05-03 18:01:00,69.0,58.0,30.01,North,0,3.0,16.0,68,0.00,,,0.00,Weather View 32 v70,2013-05-03 22:01:00,
2013-05-03 18:06:00,69.0,58.4,30.01,ENE,68,3.0,16.0,69,0.00,,,0.00,Weather View 32 v70,2013-05-03 22:06:00,
2013-05-03 18:11:00,69.0,58.4,30.01,ENE,68,5.0,16.0,69,0.00,,,0.00,Weather View 32 v70,2013-05-03 22:11:00,
2013-05-03 18:16:00,69.0,58.0,30.01,East,90,4.0,16.0,68,0.00,,,0.00,Weather View 32 v70,2013-05-03 22:16:00,
2013-05-03 18:21:00,69.0,58.8,30.01,ENE,68,5.0,16.0,70,0.00,,,0.00,Weather View 32 v70,2013-05-03 22:21:00,
2013-05-03 18:26:00,69.0,58.4,30.01,ENE,68,3.0,16.0,69,0.00,,,0.00,Weather View 32 v70,2013-05-03 22:26:00,
2013-05-03 18:31:00,69.0,59.2,30.01,ENE,68,3.0,16.0,71,0.00,,,0.00,Weather View 32 v70,2013-05-03 22:31:00,
2013-05-03 18:36:00,68.0,58.2,30.01,ENE,68,4.0,16.0,71,0.00,,,0.00,Weather View 32 v70,2013-05-03 22:36:00,
2013-05-03 18:41:00,68.0,57.8,30.01,East,90,1.0,16.0,70,0.00,,,0.00,Weather View 32 v70,2013-05-03 22:41:00,
2013-05-03 18:46:00,68.0,58.2,30.00,East,90,6.0,16.0,71,0.00,,,0.00,Weather View 32 v70,2013-05-03 22:46:00,
2013-05-03 18:51:00,68.0,57.8,30.00,East,90,6.0,16.0,70,0.00,,,0.00,Weather View 32 v70,2013-05-03 22:51:00,
2013-05-03 18:56:00,68.0,57.8,30.00,North,0,9.0,16.0,70,0.00,,,0.00,Weather View 32 v70,2013-05-03 22:56:00,
2013-05-03 19:01:00,68.0,58.2,30.00,ENE,68,3.0,13.0,71,0.00,,,0.00,Weather View 32 v70,2013-05-03 23:01:00,
2013-05-03 19:06:00,68.0,58.6,30.00,ENE,68,3.0,13.0,72,0.00,,,0.00,Weather View 32 v70,2013-05-03 23:06:00,
2013-05-03 19:11:00,68.0,58.2,30.00,ENE,68,8.0,14.0,71,0.00,,,0.00,Weather View 32 v70,2013-05-03 23:11:00,
2013-05-03 19:16:00,68.0,58.6,30.00,ENE,68,5.0,14.0,72,0.00,,,0.00,Weather View 32 v70,2013-05-03 23:16:00,
2013-05-03 19:21:00,68.0,58.6,30.00,ENE,68,5.0,14.0,72,0.00,,,0.00,Weather View 32 v70,2013-05-03 23:21:00,
2013-05-03 19:26:00,68.0,58.6,30.00,ENE,68,6.0,14.0,72,0.00,,,0.00,Weather View 32 v70,2013-05-03 23:26:00,
2013-05-03 19:32:00,68.0,58.6,30.00,ENE,68,5.0,14.0,72,0.00,,,0.00,Weather View 32 v70,2013-05-03 23:32:00,
2013-05-03 19:37:00,67.0,57.6,30.00,ENE,68,3.0,14.0,72,0.00,,,0.00,Weather View 32 v70,2013-05-03 23:37:00,
2013-05-03 19:42:00,67.0,58.0,30.01,ENE,68,2.0,14.0,73,0.00,,,0.00,Weather View 32 v70,2013-05-03 23:42:00,
2013-05-03 19:47:00,67.0,58.0,30.00,East,90,4.0,14.0,73,0.00,,,0.00,Weather View 32 v70,2013-05-03 23:47:00,
2013-05-03 19:52:00,67.0,58.0,30.00,North,0,2.0,16.0,73,0.00,,,0.00,Weather View 32 v70,2013-05-03 23:52:00,
2013-05-03 19:57:00,67.0,58.0,30.01,ENE,68,7.0,16.0,73,0.00,,,0.00,Weather View 32 v70,2013-05-03 23:57:00,
2013-05-03 20:02:00,67.0,58.0,30.01,ENE,68,1.0,16.0,73,0.00,,,0.00,Weather View 32 v70,2013-05-04 00:02:00,
2013-05-03 20:07:00,67.0,58.4,30.01,North,0,4.0,16.0,74,0.00,,,0.00,Weather View 32 v70,2013-05-04 00:07:00,
2013-05-03 20:12:00,66.0,57.4,30.01,ENE,68,5.0,16.0,74,0.00,,,0.00,Weather View 32 v70,2013-05-04 00:12:00,
2013-05-03 20:17:00,66.0,57.4,30.01,North,0,5.0,16.0,74,0.00,,,0.00,Weather View 32 v70,2013-05-04 00:17:00,
2013-05-03 20:22:00,66.0,57.4,30.01,ENE,68,4.0,16.0,74,0.00,,,0.00,Weather View 32 v70,2013-05-04 00:22:00,
2013-05-03 20:27:00,66.0,57.8,30.01,ENE,68,2.0,16.0,75,0.00,,,0.00,Weather View 32 v70,2013-05-04 00:27:00,
2013-05-03 20:32:00,66.0,57.8,30.00,ENE,68,5.0,16.0,75,0.00,,,0.00,Weather View 32 v70,2013-05-04 00:32:00,
2013-05-03 20:37:00,66.0,57.8,30.01,ENE,68,3.0,16.0,75,0.00,,,0.00,Weather View 32 v70,2013-05-04 00:37:00,
2013-05-03 20:42:00,66.0,57.8,30.01,ENE,68,5.0,16.0,75,0.00,,,0.00,Weather View 32 v70,2013-05-04 00:42:00,
2013-05-03 20:47:00,66.0,57.8,30.01,North,0,3.0,16.0,75,0.00,,,0.00,Weather View 32 v70,2013-05-04 00:47:00,
2013-05-03 20:52:00,66.0,57.8,30.00,ENE,68,3.0,11.0,75,0.00,,,0.00,Weather View 32 v70,2013-05-04 00:52:00,
2013-05-03 20:57:00,66.0,57.8,30.00,ENE,68,4.0,11.0,75,0.00,,,0.00,Weather View 32 v70,2013-05-04 00:57:00,
2013-05-03 21:02:00,66.0,58.2,30.01,East,90,3.0,11.0,76,0.00,,,0.00,Weather View 32 v70,2013-05-04 01:02:00,
2013-05-03 21:07:00,66.0,58.2,30.00,NNW,338,3.0,11.0,76,0.00,,,0.00,Weather View 32 v70,2013-05-04 01:07:00,
2013-05-03 21:12:00,66.0,58.2,30.00,ENE,68,3.0,11.0,76,0.00,,,0.00,Weather View 32 v70,2013-05-04 01:12:00,
2013-05-03 21:17:00,66.0,58.6,30.01,ENE,68,5.0,11.0,77,0.00,,,0.00,Weather View 32 v70,2013-05-04 01:17:00,
2013-05-03 21:22:00,66.0,58.6,30.01,East,90,1.0,11.0,77,0.00,,,0.00,Weather View 32 v70,2013-05-04 01:22:00,
2013-05-03 21:27:00,65.0,57.6,30.01,East,90,3.0,11.0,77,0.00,,,0.00,Weather View 32 v70,2013-05-04 01:27:00,
2013-05-03 21:32:00,65.0,57.6,30.01,ENE,68,5.0,11.0,77,0.00,,,0.00,Weather View 32 v70,2013-05-04 01:32:00,
2013-05-03 21:37:00,65.0,57.6,30.01,ENE,68,5.0,13.0,77,0.00,,,0.00,Weather View 32 v70,2013-05-04 01:37:00,
2013-05-03 21:42:00,65.0,57.6,30.01,North,0,3.0,14.0,77,0.00,,,0.00,Weather View 32 v70,2013-05-04 01:42:00,
2013-05-03 21:47:00,65.0,57.6,30.01,ENE,68,3.0,14.0,77,0.00,,,0.00,Weather View 32 v70,2013-05-04 01:47:00,
2013-05-03 21:52:00,65.0,57.6,30.01,ENE,68,6.0,14.0,77,0.00,,,0.00,Weather View 32 v70,2013-05-04 01:52:00,
2013-05-03 21:57:00,65.0,58.0,30.02,NNW,338,3.0,14.0,78,0.00,,,0.00,Weather View 32 v70,2013-05-04 01:57:00,
2013-05-03 22:02:00,65.0,58.0,30.02,North,0,3.0,14.0,78,0.00,,,0.00,Weather View 32 v70,2013-05-04 02:02:00,
2013-05-03 22:07:00,65.0,58.0,30.02,East,90,4.0,14.0,78,0.00,,,0.00,Weather View 32 v70,2013-05-04 02:07:00,
2013-05-03 22:12:00,65.0,58.0,30.02,North,0,5.0,14.0,78,0.00,,,0.00,Weather View 32 v70,2013-05-04 02:12:00,
2013-05-03 22:17:00,65.0,58.0,30.02,East,90,7.0,14.0,78,0.00,,,0.00,Weather View 32 v70,2013-05-04 02:17:00,
2013-05-03 22:22:00,65.0,58.0,30.01,ENE,68,5.0,14.0,78,0.00,,,0.00,Weather View 32 v70,2013-05-04 02:22:00,
2013-05-03 22:27:00,64.0,57.0,30.01,ENE,68,5.0,14.0,78,0.00,,,0.00,Weather View 32 v70,2013-05-04 02:27:00,
2013-05-03 22:33:00,64.0,57.0,30.02,ENE,68,5.0,14.0,78,0.00,,,0.00,Weather View 32 v70,2013-05-04 02:33:00,
2013-05-03 22:38:00,64.0,56.6,30.01,SSE,158,6.0,14.0,77,0.00,,,0.00,Weather View 32 v70,2013-05-04 02:38:00,
2013-05-03 22:43:00,64.0,56.6,30.02,ENE,68,5.0,15.0,77,0.00,,,0.00,Weather View 32 v70,2013-05-04 02:43:00,
2013-05-03 22:48:00,64.0,56.3,30.01,ENE,68,5.0,15.0,76,0.00,,,0.00,Weather View 32 v70,2013-05-04 02:48:00,
2013-05-03 22:53:00,64.0,55.9,30.02,ENE,68,5.0,16.0,75,0.00,,,0.00,Weather View 32 v70,2013-05-04 02:53:00,
2013-05-03 22:58:00,64.0,55.1,30.01,East,90,4.0,16.0,73,0.00,,,0.00,Weather View 32 v70,2013-05-04 02:58:00,
2013-05-03 23:03:00,64.0,54.8,30.01,North,0,5.0,16.0,72,0.00,,,0.00,Weather View 32 v70,2013-05-04 03:03:00,
2013-05-03 23:08:00,63.0,53.8,30.01,ENE,68,7.0,16.0,72,0.00,,,0.00,Weather View 32 v70,2013-05-04 03:08:00,
2013-05-03 23:13:00,63.0,53.0,30.01,ENE,68,14.0,16.0,70,0.00,,,0.00,Weather View 32 v70,2013-05-04 03:13:00,
2013-05-03 23:18:00,63.0,52.2,30.01,ENE,68,13.0,19.0,68,0.00,,,0.00,Weather View 32 v70,2013-05-04 03:18:00,
2013-05-03 23:23:00,63.0,51.4,30.01,ENE,68,8.0,19.0,66,0.00,,,0.00,Weather View 32 v70,2013-05-04 03:23:00,
2013-05-03 23:28:00,63.0,51.0,30.01,East,90,4.0,19.0,65,0.00,,,0.00,Weather View 32 v70,2013-05-04 03:28:00,
2013-05-03 23:33:00,62.0,49.7,30.01,ENE,68,6.0,19.0,64,0.00,,,0.00,Weather View 32 v70,2013-05-04 03:33:00,
2013-05-03 23:38:00,62.0,49.2,30.01,ENE,68,14.0,19.0,63,0.00,,,0.00,Weather View 32 v70,2013-05-04 03:38:00,
2013-05-03 23:43:00,62.0,49.2,30.01,North,0,4.0,19.0,63,0.00,,,0.00,Weather View 32 v70,2013-05-04 03:43:00,
2013-05-03 23:48:00,62.0,49.2,30.01,ENE,68,2.0,19.0,63,0.00,,,0.00,Weather View 32 v70,2013-05-04 03:48:00,
2013-05-03 23:53:00,62.0,49.7,30.01,North,0,6.0,19.0,64,0.00,,,0.00,Weather View 32 v70,2013-05-04 03:53:00,
2013-05-03 23:58:00,62.0,49.7,30.01,East,90,6.0,19.0,64,0.00,,,0.00,Weather View 32 v70,2013-05-04 03:58:00,